VANOK Weather Reports


time (UTC)temp
C
wind
direction
speed
KPH
gust
KPH
rain 1hr
cm
rain 24hr
cm
rain mn
cm
humidity
%
barometer
mb
20260508074733 8 317 8.0 12.9 0.00 0.00 0.00 49 1027.3
20260508072732 8 312 6.4 11.3 0.00 0.00 0.00 56 1027.1
20260508070733 8 325 6.4 9.7 0.00 0.00 0.00 56 1027.0
20260508064732 7 340 6.4 9.7 0.00 0.00 0.00 49 1026.7
20260508062732 8 348 4.8 8.0 0.00 0.00 0.00 50 1026.5
20260508060733 7 360 4.8 8.0 0.00 0.00 0.00 55 1026.4
20260508054733 7 42 4.8 9.7 0.00 0.00 0.00 56 1026.0
20260508052733 6 27 6.4 11.3 0.00 0.00 0.00 59 1025.8
20260508050732 6 12 9.7 14.5 0.00 0.00 0.00 62 1025.5
20260508044733 6 21 8.0 14.5 0.00 0.00 0.00 64 1025.3
20260508042732 6 22 12.9 20.9 0.00 0.00 0.00 65 1025.1
20260508040732 5 16 12.9 16.1 0.00 0.00 0.00 73 1024.9
20260508034732 5 12 11.3 16.1 0.00 0.00 0.00 76 1024.8
20260508032732 4 7 12.9 17.7 0.00 0.00 0.00 75 1024.7
20260508030733 3 2 14.5 17.7 0.00 0.00 0.00 78 1024.5
20260508024732 3 356 14.5 19.3 0.00 0.00 0.00 79 1024.3
20260508022731 3 360 14.5 17.7 0.00 0.00 0.00 79 1024.0
20260508020732 3 360 14.5 17.7 0.00 0.00 0.00 78 1023.7
20260508014732 4 355 17.7 20.9 0.00 0.00 0.00 75 1023.5
20260508012731 4 353 16.1 19.3 0.00 0.00 0.00 74 1023.3
20260508010732 4 354 12.9 16.1 0.00 0.00 0.00 75 1023.3
20260508004732 4 359 9.7 14.5 0.00 0.00 0.00 76 1023.1
20260508002732 5 348 12.9 16.1 0.00 0.00 0.00 71 1022.8
20260508000733 5 340 17.7 20.9 0.00 0.00 0.00 69 1022.5
20260507234732 5 338 16.1 19.3 0.00 0.00 0.00 71 1022.3
20260507232731 5 335 16.1 20.9 0.00 0.00 0.00 68 1022.1
20260507230732 5 333 17.7 20.9 0.00 0.00 0.00 66 1021.7
20260507224731 5 337 14.5 19.3 0.00 0.00 0.00 64 1021.6
20260507222732 6 331 16.1 19.3 0.00 0.00 0.00 63 1021.5
20260507220731 6 334 20.9 25.7 0.00 0.00 0.00 62 1021.2
20260507214731 6 334 24.1 33.8 0.00 0.00 0.00 60 1020.9
20260507212730 6 334 24.1 32.2 0.00 0.00 0.00 57 1020.6
20260507210730 6 334 24.1 32.2 0.00 0.00 0.00 56 1020.4
20260507204731 6 337 22.5 33.8 0.00 0.00 0.00 56 1020.1
20260507202731 7 339 20.9 27.4 0.00 0.00 0.00 51 1019.9
20260507200732 7 333 20.9 29.0 0.00 0.00 0.00 53 1019.7
20260507194730 7 326 19.3 24.1 0.00 0.00 0.00 56 1019.5
20260507192730 7 326 20.9 25.7 0.00 0.00 0.00 47 1019.1
20260507190730 7 323 20.9 29.0 0.00 0.00 0.00 46 1019.0
20260507184730 7 319 20.9 27.4 0.00 0.00 0.00 49 1018.7
20260507182729 7 316 17.7 22.5 0.00 0.00 0.00 48 1018.5
20260507180729 8 313 17.7 22.5 0.00 0.00 0.00 44 1018.4
20260507174730 8 312 17.7 24.1 0.00 0.00 0.00 40 1018.3
20260507172729 8 320 16.1 24.1 0.00 0.00 0.00 40 1018.1
20260507170729 9 319 19.3 29.0 0.00 0.00 0.00 39 1017.9
20260507164730 9 318 20.9 30.6 0.00 0.00 0.00 41 1017.8
20260507162730 9 310 19.3 30.6 0.00 0.00 0.00 46 1017.7
20260507160730 9 296 22.5 33.8 0.00 0.00 0.00 49 1017.6
20260507154729 10 287 24.1 33.8 0.00 0.00 0.00 42 1017.4
20260507152729 10 284 19.3 32.2 0.00 0.00 0.00 40 1017.2
20260507150731 10 283 17.7 27.4 0.00 0.00 0.00 38 1017.2
20260507144730 10 282 20.9 30.6 0.00 0.00 0.00 37 1017.2
20260507142731 10 287 22.5 30.6 0.00 0.00 0.00 33 1017.1
20260507140730 11 290 19.3 30.6 0.00 0.00 0.00 35 1017.1
20260507134730 10 286 24.1 29.0 0.00 0.00 0.00 40 1017.1
20260507132729 11 275 19.3 24.1 0.00 0.00 0.00 25 1016.9
20260507130730 11 268 14.5 19.3 0.00 0.00 0.00 23 1016.9
20260507124729 11 285 11.3 17.7 0.00 0.00 0.00 25 1016.9
20260507122728 11 289 12.9 17.7 0.00 0.00 0.00 27 1016.8
20260507120730 10 288 12.9 17.7 0.00 0.00 0.00 29 1016.8
20260507114729 10 288 12.9 17.7 0.00 0.00 0.00 30 1016.8
20260507112728 10 290 12.9 17.7 0.00 0.00 0.00 31 1016.8
20260507110728 10 297 12.9 17.7 0.00 0.00 0.00 35 1016.7
20260507104728 9 298 12.9 19.3 0.00 0.00 0.00 38 1016.6
20260507102728 10 269 9.7 17.7 0.00 0.00 0.00 38 1016.6
20260507100728 9 284 9.7 14.5 0.00 0.00 0.00 41 1016.3
20260507092728 10 146 3.2 6.4 0.00 0.00 0.00 32 1016.2
20260507090729 8 127 4.8 9.7 0.00 0.00 0.00 37 1016.2
20260507084728 9 96 4.8 8.0 0.00 0.00 0.00 35 1016.2
20260507082728 8 89 9.7 12.9 0.00 0.00 0.00 36 1016.2
20260507080728 8 92 8.0 11.3 0.00 0.00 0.00 35 1016.2